Regional Weather Roundup
Issued by NWS Glasgow, MT

Home | Current Version | Previous Version | Text Only | Print | Product List | Glossary On
Versions: 1 2 3 4 5 6 7 8 9 10 11 12 13 14 15 16 17 18 19 20 21 22 23 24 25 26 27 28 29 30 31 32 33 34 35 36 37 38 39 40 41 42 43 44 45 46 47 48 49 50
000
ASUS45 KGGW 292115
RWRGGW
HOURLY REGIONAL WEATHER ROUNDUP FOR NORTHEAST MONTANA
NATIONAL WEATHER SERVICE GLASGOW MONTANA
300 PM MDT WED MAR 29 2017

NOTE: "FAIR" INDICATES FEW OR NO CLOUDS BELOW 12,000 FEET WITH NO
SIGNIFICANT WEATHER AND/OR OBSTRUCTIONS TO VISISBILITY.

NORTHEAST MONTANA


CITY           SKY/WX    TMP DP  RH WIND       PRES   REMARKS
GLASGOW        MOSUNNY   58  27  30 W6        29.90F
PLENTYWOOD       N/A     58  22  24 W16G24      N/A
WOLF POINT     MOSUNNY   62  29  28 W15G21    29.90F
JORDAN           N/A     58  28  32 SW17      29.92F
WINNETT          N/A     59  25  27 S3          N/A
SIDNEY         MOSUNNY   62  29  28 SW13G22   29.91F
GLENDIVE       MOSUNNY   62  31  31 W15       29.93F
MALTA            N/A     62  30  29 W10G20      N/A
SCOBEY           N/A     59  26  28 MISG      29.87F

FORT PECK REPORTS


CITY           SKY/WX    TMP DP  RH WIND       PRES   REMARKS
FORT PECK        N/A     49  32  52 S12         N/A
THE PINES        N/A     58  26  29 CALM        N/A

SOUTHEAST MONTANA


CITY           SKY/WX    TMP DP  RH WIND       PRES   REMARKS
BILLINGS       MOSUNNY   58  32  37 S7        29.93F
MILES CITY     PTSUNNY   57  28  33 SW13G18   29.95F
BAKER          SUNNY     60  29  30 W15G24    29.96F
LIVINGSTON     PTSUNNY   55  29  36 SW25G38   29.94F

CENTRAL MONTANA


CITY           SKY/WX    TMP DP  RH WIND       PRES   REMARKS
HAVRE          MOSUNNY   58  30  34 SW18      29.86F
LEWISTOWN      MOSUNNY   56  26  31 SW17      29.89F
GREAT FALLS    CLOUDY    52  32  46 SW16G26   29.88F
CUT BANK       CLOUDY    53  29  39 S16G23    29.82F
HELENA         CLOUDY    54  35  48 S12       29.91F
BUTTE          CLOUDY    51  30  44 SW9G18    29.95F
BOZEMAN        CLOUDY    53  33  46 NE6       29.96F

WESTERN MONTANA


CITY           SKY/WX    TMP DP  RH WIND       PRES   REMARKS
MISSOULA       LGT RAIN  49  39  68 E6        29.94F
KALISPELL      NOT AVBL

NORTH DAKOTA


CITY           SKY/WX    TMP DP  RH WIND       PRES   REMARKS
WILLISTON      MOSUNNY   62  33  33 W16G23    29.91F
DICKINSON      CLOUDY    62  28  27 SW16      29.91F
MINOT          PTSUNNY   61  38  42 S18G24    29.92F
BISMARCK       CLOUDY    61  38  42 S15G25    29.98F

SOUTHERN SASKATCHEWAN


CITY           SKY/WX    TMP DP  RH WIND       PRES   REMARKS
REGINA         MOSUNNY   59  30  33 SW13G23   29.80F
MOOSE JAW      MOSUNNY   61  27  27 W17G29    29.81F
ESTEVAN        PTSUNNY   57  30  35 SW18      29.87F
SWIFT CURRENT  SUNNY     57  19  23 W17       29.81F




USA.gov is the U.S. government's official web portal to all federal, state and local government web resources and services.